Tracking 19636 objects as of 24-May-2019
HD Live streaming from Space Station
objects crossing your sky now

COSMOS 1341

Track COSMOS 1341 now!
COSMOS 1341 is classified as:


NORAD ID: 13080
Int'l Code: 1982-016A
Perigee: 2,845.5 km
Apogee: 37,576.9 km
Inclination: 67.5 °
Period: 718.9 minutes
Semi major axis: 26582 km
RCS: 8.091 m2 (large)
Launch date: March 3, 1982
Source: Commonwealth of Independent States (former USSR) (CIS)
Launch site: PLESETSK MISSILE AND SPACE COMPLEX (PKMTR)
aabbcc
Your satellite tracking list
Your tracking list is empty




NASA's NSSDC Master Catalog

Two Line Element Set (TLE):
1 13080U 82016A   19143.52682170 -.00000785 +00000-0 +00000-0 0  9999
2 13080 067.4548 175.7291 6532833 024.4679 356.1296 02.00316789182977
Source of the keplerian elements: AFSPC